MONITOR-3 (RS58S)

Last updated on Sun Aug 09 2026 00:03:15 GMT+0000 (Coordinated Universal Time)

1 57180U 23091Q 26220.57646958 .00005267 00000+0 19079-3 0 9996 2 57180 97.5049 284.4315 0009527 273.5830 86.4320 15.28789109172299
UTC large
Height (km)
Speed (km/s)
/
Latitude / Longitude
Inclination (degrees)
Orbital Period (minutes)
Azimuth
Elevation
Range (km)
Doppler Factor

Next 0 passes for location: London (51.5072 / 0.1276)

No passes found over London.
MONITOR-3 (RS58S)